#timestamp,LO_Frequency,Hit,StdDev 
1681308015.3,286046986.2,N
1681308035.2,286046971.6,N
1681308055.9,286046969.0,N
1681308075.7,286046972.4,N
1681308095.6,286046975.2,N
1681308115.4,286046976.0,N
1681308135.2,286046982.6,N
1681308155.1,286046996.0,N
1681308156.0,286046996.0,N
1681308175.8,286046992.3,N
1681308195.7,286046989.1,N
1681308215.5,286046984.1,N
1681308235.3,286046991.6,N
1681308255.2,286046994.1,N
1681308275.0,286046998.9,N
1681308275.9,286046998.9,N
1681308295.8,286046989.2,N
1681308315.6,286046986.2,N
1681308335.4,286046991.2,N
1681308355.3,286046986.3,N
1681308375.1,286046986.8,N
1681308395.8,286046992.4,N
1681308415.7,286046998.2,N
1681308435.5,286046996.9,N
1681308455.3,286046993.4,N
1681308475.2,286046992.0,N
1681308495.0,286046997.7,N
1681308495.9,286046997.7,N
1681308515.8,286046995.7,N
1681308535.6,286046991.0,N
1681308555.4,286046989.8,N
1681308575.3,286046986.7,N
1681308595.1,286046988.1,N
1681308615.9,286046989.7,N
1681308635.7,286046992.6,N
1681308655.5,286046990.3,N
1681308675.4,286046992.3,N
1681308695.2,286046995.4,N
1681308715.1,286046994.1,N
1681308716.0,286046994.1,N
1681308735.8,286046990.4,N
1681308755.6,286046993.2,N
1681308775.5,286046990.7,N
1681308795.3,286046992.1,N
1681308815.1,286046996.0,N
1681308835.9,286046995.7,N
1681308855.7,286046994.7,N
1681308875.6,286046988.1,Y
1681308895.4,286046991.1,P
1681308915.2,286046996.4,P
1681308935.1,286046993.7,N
1681308936.0,286046993.7,Y
1681308955.8,286047000.5,P
1681308975.7,286047003.8,N
1681308995.5,286047004.0,N
1681309015.3,286047005.8,N
1681309035.2,286047007.6,N
1681309055.0,286047003.9,N
1681309055.9,286047003.9,N
1681309075.8,286047007.1,N
1681309095.6,286047007.4,N
1681309115.4,286047002.9,N
1681309135.3,286047001.6,N
1681309155.1,286046991.8,N
1681309175.8,286046990.5,N
1681309195.7,286046993.4,N
1681309215.5,286046992.6,N
1681309235.4,286046991.0,N
1681309255.2,286046988.5,N
1681309275.0,286046990.5,N
1681309275.9,286046990.5,N
1681309295.8,286046977.7,Y
1681309315.6,286046981.4,P
1681309335.4,286046979.2,N
1681309355.3,286046986.3,N
1681309375.1,286046984.1,N
1681309395.9,286046985.1,N
1681309415.7,286046984.3,N
1681309435.5,286046981.0,Y
1681309455.4,286046994.3,P
1681309475.2,286046990.1,N
1681309495.0,286046993.1,N
1681309496.0,286046993.1,N
1681309515.8,286046992.4,N
1681309535.6,286046991.5,N
1681309555.5,286046994.4,N
1681309575.3,286046989.9,Y
1681309595.1,286046984.7,P
1681309615.9,286046981.9,P
1681309635.7,286046986.4,P
1681309655.6,286046987.5,Y
1681309675.4,286046995.1,P
1681309695.2,286046998.2,N
1681309715.1,286047002.1,N
1681309716.0,286047002.1,N
1681309735.8,286047009.1,N
1681309755.6,286047017.2,N
1681309775.5,286047018.7,N
1681309795.3,286047011.9,N
1681309815.2,286047008.3,N
1681309835.9,286047012.1,N
1681309855.7,286047017.0,N
1681309875.6,286047011.7,N
1681309895.4,286047015.2,N
1681309915.2,286047017.7,N
1681309935.1,286047021.8,N
1681309936.0,286047021.8,N
1681309955.8,286047015.8,N
1681309975.7,286047001.8,N
1681309995.5,286047007.0,N
1681310015.3,286047011.3,N
1681310035.2,286047004.8,N
1681310055.0,286046999.5,N
1681310055.9,286046999.5,N
1681310075.7,286047000.4,N
1681310095.6,286047001.4,N
1681310115.4,286047002.8,N
1681310135.3,286047001.2,N
1681310155.1,286047003.5,N
1681310156.0,286047003.5,N
1681310175.8,286047006.6,N
1681310195.7,286047009.3,N
1681310215.5,286047012.3,N
1681310235.3,286047008.6,N
1681310255.2,286047007.7,N
1681310275.0,286046996.9,N
1681310275.9,286046996.9,N
1681310295.8,286046993.8,N
1681310315.6,286046997.3,N
1681310335.4,286046998.3,N
1681310355.3,286046991.7,N
1681310375.1,286046995.7,N
1681310395.8,286046996.2,N
1681310415.7,286046999.3,N
1681310435.5,286047004.2,N
1681310455.4,286047001.8,N
1681310475.2,286047006.7,N
1681310495.0,286047009.2,N
1681310495.9,286047009.2,N
1681310515.8,286047005.5,N
1681310535.6,286047006.0,N
1681310555.4,286047007.0,N
1681310575.3,286047010.8,N
1681310595.1,286047017.5,Y
1681310615.9,286047017.8,P
1681310635.7,286047012.2,N
1681310655.5,286047004.9,N
1681310675.4,286047004.6,N
1681310695.2,286047007.3,N
1681310715.1,286047012.2,N
1681310716.0,286047012.2,N
1681310735.8,286047013.5,N
1681310755.6,286047011.9,N
1681310775.5,286047002.1,N
1681310795.3,286047000.7,N
1681310815.1,286047000.3,N
1681310835.9,286047000.2,N
1681310855.7,286046998.7,N
1681310875.6,286046998.2,N
1681310895.4,286046997.9,N
1681310915.2,286046983.5,N
1681310935.1,286046968.1,Y
1681310936.0,286046968.1,P
1681310955.8,286046955.8,N
1681310975.7,286046950.5,N
1681310995.5,286046955.4,N
1681311015.3,286046964.9,N
1681311035.2,286046968.7,N
1681311055.9,286046960.7,N
1681311075.7,286046966.7,N
1681311095.6,286046980.1,N
1681311115.4,286046980.1,N
1681311135.2,286046982.9,N
1681311155.1,286046981.6,N
1681311156.0,286046981.6,N
1681311175.8,286046985.9,N
1681311195.7,286047004.2,N
1681311215.5,286047007.7,N
1681311235.3,286047011.7,N
1681311255.2,286047013.2,N
1681311275.0,286047011.0,N
1681311275.9,286047011.0,N
1681311295.8,286047011.9,N
1681311315.6,286047018.4,N
1681311335.4,286047023.7,N
1681311355.3,286047016.2,N
1681311375.1,286047013.8,N
1681311376.0,286047013.8,N
1681311395.8,286047013.2,N
1681311415.7,286047016.6,N
1681311435.5,286047017.7,N
1681311455.3,286047020.8,N
1681311475.2,286047017.3,N
1681311495.0,286047018.6,N
1681311495.9,286047018.6,N
1681311515.8,286047017.4,N
1681311535.6,286047015.6,N
1681311555.4,286047013.8,N
1681311575.3,286047013.8,N
1681311595.1,286047018.1,N
